Content
SEND FEEDBACK

Daily
Averages
Monthly
Summary
Canada

PETIT SAGUENAY, QUEBEC


Home > North America > Canada > Quebec
Elevation: 400 feet     Latitude: 48 11N     Longitude: 070 03W

WEATHER
 
SELECT A DAY
Number of Records: 242,516;   Date Range: 1/1/95 - 10/20/14
 
SHARE

PRINT THIS DATA

[ ← Previous Day ]
WEATHER ALMANAC - JUNE 26, 2013
[ Next Day → ]
[ °C ]   °F
We're sorry. There is no daily almanac available for Petit Saguenay, Quebec on June 26, 2013.
WEATHER BY HOUR - JUNE 26, 2013
[ °C ]   °F
Local TimeTemperatureDewpointHumidityBarometerVisibilityWind DirectionWind SpeedGust SpeedPrecipitationEventsConditions
1:00 AM51.4 °F48.6 °F90 %ESE (110°)13.8 mph20.7 mph
2:00 AM51.0 °F47.0 °F83 %ESE (110°)18.4 mph
2:00 AM51.3 °F47.5 °F87 %ESE (110°)18.4 mph
3:00 AM50.5 °F45.9 °F84 %ESE (110°)16.1 mph
4:00 AM50.5 °F46.8 °F87 %East (100°)12.7 mph
5:00 AM50.2 °F45.3 °F83 %East (100°)13.8 mph
6:00 AM50.5 °F45.7 °F83 %East (100°)12.7 mph
7:00 AM50.9 °F45.1 °F81 %East (100°)12.7 mph
8:00 AM51.0 °F45.0 °F74 %East (100°)15.0 mph
8:00 AM51.1 °F45.1 °F80 %East (100°)15.0 mph
9:00 AM51.6 °F45.3 °F79 %East (100°)16.1 mph
10:00 AM52.7 °F45.9 °F78 %East (100°)13.8 mph
11:00 AM53.6 °F46.2 °F76 %East (100°)17.3 mph
12:00 PM54.1 °F46.0 °F74 %East (90°)17.3 mph
1:00 PM54.7 °F46.6 °F74 %East (100°)13.8 mph
2:00 PM55.0 °F47.0 °F65 %East (100°)18.4 mph
2:00 PM55.2 °F46.6 °F73 %East (100°)18.4 mph
3:00 PM55.0 °F46.6 °F73 %East (90°)16.1 mph
4:00 PM54.9 °F46.8 °F74 %East (90°)11.5 mph
5:00 PM53.8 °F47.3 °F79 %East (100°)15.0 mph
6:00 PM54.1 °F47.3 °F78 %East (80°)11.5 mph
7:00 PM52.3 °F48.2 °F86 %East (100°)15.0 mph
8:00 PM51.0 °F48.0 °F87 %East (80°)10.4 mph
8:00 PM51.4 °F48.2 °F89 %East (80°)10.4 mph
9:00 PM50.2 °F48.7 °F95 %East (90°)6.9 mph
10:00 PM50.7 °F49.6 °F96 %ENE (70°)8.1 mph
11:00 PM51.3 °F50.0 °F95 %East (90°)10.4 mph
Hourly data recorded from CWQV, located miles away from Petit Saguenay, Quebec







STORIES FROM OUR PARTNERS